Location: Krakow
(50.0830°N, 19.9170°E)
Time: 11:49:28
(UTC+02:00)

A-11 Canister half - Pass Details

Date: 22 March 2026
Orbit: 1523 x 1684 km, 47.3° (Epoch: 16 April)

Event Time Altitude Azimuth Distance (km) Brightness Sun altitude
Rises 08:31:23 0° 242° (WSW) 4,906 11.4 25.5°
Reaches altitude 10° 08:34:35 10° 240° (WSW) 3,904 11.0 25.9°
Maximum altitude 08:44:25 66° 162° (SSE) 1,746 10.2 27.2°
Drops below altitude 10° 08:53:56 10° 83° (E) 3,787 11.8 28.4°
Sets 08:56:59 0° 81° (E) 4,752 12.1 28.8°
